User: anonymous   Login
Location: Petruro
(41.0333°N, 14.7833°E)
Time: 15:13:57
(UTC+00:00)
Language:

Cosmos 2221 - Orbit

View from above orbital plane
View from above orbital plane
View from above satellite
View from above satellite

Ground track
Ground track

The orbit data is extracted from the following two-line orbital elements,

1 22236U 92080A   21269.57077973  .00000446  00000-0  45706-4 0  9999
2 22236  82.5109  23.1603 0015878 209.7276 150.3041 14.88104937559636
Epoch (UTC): 26 September 2021 13:41:55
Eccentricity: 0.0015878
inclination: 82.5109°
perigee height: 593 km
apogee height: 615 km
right ascension of ascending node: 23.1603°
argument of perigee: 209.7276°
revolutions per day: 14.88104937
mean anomaly at epoch: 150.3041°
orbit number at epoch: 55963

The dashed part of the orbit path shows where the satellite is in the earth's shadow,  

DLR